Log in  \/ 
x
x

Montgomery Operations

Montgomery Operations for Plus One Flyers is located at: Gibbs Flying Service, 3717 John J Montgomery Dr, San Diego, CA 92123

We have completed a remodel of the Plus One Flyers office space and now we have a computer room with 3 new computers, 2 new copier/ printers on line. We also have a classroom/ meeting room with no simulators, and the Elite and Redbird sims have moved to the old computer area. 

Come take a look, its really nice and very user friendly.

BE Safe

Dave Eby

Additional info
  • Operations Officer: Dave Eby
  • Phone Number: 619-279-7499
  • E-Mail: myfops@plusoneflyers.org
Comments

People in this conversation

  • Annette Goff

    Kind of miss that link to the NOAA three day weather history. Makes for better flight planning and is a good tool. Just a thought.

Leave your comments

0 Character restriction
Your text should be more than 10 characters
terms and condition.
Special Instructions

None

Montgomery Weather

[source: ADDS]
METAR
KMYF 180653Z AUTO 00000KT 10SM CLR 22/13 A2995 RMK AO2 SLP136 T02220128 =
KNKX 180655Z 00000KT 10SM CLR 21/09 A2995 RMK AO2 SLP134 T02060094 $ =
TAF
TAF KNKX 1803/1903 VRB05KT 9999 FEW150 SCT250 QNH2991INS BECMG 1818/1820 28008KT 9999 FEW150 QNH2986INS BECMG 1900/1902 VRB05KT 9999 FEW150 QNH2989INS T18/1811Z T29/1821Z =
SR / SS: 13:55 / 01:11 UTC ( 2017-10-18)

Montgomery Operations Map